EA3BNF-1 Weather Reports


time (UTC)temp
C
wind
direction
speed
KPH
gust
KPH
rain 1hr
cm
rain 24hr
cm
rain mn
cm
humidity
%
barometer
mb
20260506180900 20 0.0 0.0 0.00 0.00 0.00 59 1011.0
20260506175804 20 0.0 0.0 0.00 0.00 0.00 58 1010.9
20260506174708 21 0.0 0.0 0.00 0.00 0.00 56 1010.9
20260506173613 21 0.0 0.0 0.00 0.00 0.00 58 1010.8
20260506171852 21 0.0 0.0 0.00 0.00 0.00 56 1010.8
20260506170756 21 0.0 0.0 0.00 0.00 0.00 54 1010.7
20260506165700 21 0.0 0.0 0.00 0.00 0.00 55 1010.7
20260506164605 21 0.0 0.0 0.00 0.00 0.00 55 1010.5
20260506163509 21 0.0 0.0 0.00 0.00 0.00 54 1010.4
20260506162413 21 0.0 0.0 0.00 0.00 0.00 54 1010.4
20260506161317 21 0.0 0.0 0.00 0.00 0.00 54 1010.4
20260506160222 21 0.0 0.0 0.00 0.00 0.00 54 1010.4
20260506155126 21 0.0 0.0 0.00 0.00 0.00 54 1010.4
20260506154030 22 0.0 0.0 0.00 0.00 0.00 54 1010.5
20260506152935 22 0.0 0.0 0.00 0.00 0.00 53 1010.6
20260506151839 21 0.0 0.0 0.00 0.00 0.00 54 1010.6
20260506150744 21 0.0 0.0 0.00 0.00 0.00 53 1010.7
20260506145648 21 0.0 0.0 0.00 0.00 0.00 53 1010.8
20260506144553 21 0.0 0.0 0.00 0.00 0.00 53 1010.9
20260506143457 21 0.0 0.0 0.00 0.00 0.00 52 1010.9
20260506142402 21 0.0 0.0 0.00 0.00 0.00 51 1011.0
20260506141306 21 0.0 0.0 0.00 0.00 0.00 52 1011.2
20260506140210 21 0.0 0.0 0.00 0.00 0.00 53 1011.3
20260506135114 21 0.0 0.0 0.00 0.00 0.00 53 1011.4
20260506134019 21 0.0 0.0 0.00 0.00 0.00 53 1011.5
20260506132923 21 0.0 0.0 0.00 0.00 0.00 52 1011.6
20260506131827 21 0.0 0.0 0.00 0.00 0.00 51 1011.7
20260506130732 20 0.0 0.0 0.00 0.00 0.00 52 1011.9
20260506125636 20 0.0 0.0 0.00 0.00 0.00 54 1011.9
20260506124541 20 0.0 0.0 0.00 0.00 0.00 53 1011.9
20260506123445 20 0.0 0.0 0.00 0.00 0.00 53 1011.9
20260506122350 20 0.0 0.0 0.00 0.00 0.00 52 1012.0
20260506121254 20 0.0 0.0 0.00 0.00 0.00 55 1012.1
20260506120158 20 0.0 0.0 0.00 0.00 0.00 53 1012.2
20260506115103 20 0.0 0.0 0.00 0.00 0.00 52 1012.2
20260506114007 20 0.0 0.0 0.00 0.00 0.00 54 1012.2
20260506112911 19 0.0 0.0 0.00 0.00 0.00 55 1012.3
20260506111816 19 0.0 0.0 0.00 0.00 0.00 54 1012.4
20260506110721 19 0.0 0.0 0.00 0.00 0.00 54 1012.4
20260506105625 19 0.0 0.0 0.00 0.00 0.00 54 1012.5
20260506104529 19 0.0 0.0 0.00 0.00 0.00 53 1012.5
20260506103433 18 0.0 0.0 0.00 0.00 0.00 52 1012.6
20260506102337 18 0.0 0.0 0.00 0.00 0.00 53 1012.7
20260506101242 18 0.0 0.0 0.00 0.00 0.00 54 1012.8
20260506100146 18 0.0 0.0 0.00 0.00 0.00 54 1012.9
20260506095051 18 0.0 0.0 0.00 0.00 0.00 55 1013.0
20260506093956 18 0.0 0.0 0.00 0.00 0.00 55 1012.9
20260506092859 18 0.0 0.0 0.00 0.00 0.00 56 1013.0
20260506091804 18 0.0 0.0 0.00 0.00 0.00 55 1012.9
20260506090708 18 0.0 0.0 0.00 0.00 0.00 55 1012.9
20260506085613 17 0.0 0.0 0.00 0.00 0.00 56 1012.9
20260506084517 17 0.0 0.0 0.00 0.00 0.00 56 1012.8
20260506083421 17 0.0 0.0 0.00 0.00 0.00 55 1012.7
20260506082326 17 0.0 0.0 0.00 0.00 0.00 53 1012.5
20260506081230 17 0.0 0.0 0.00 0.00 0.00 54 1012.5
20260506080134 17 0.0 0.0 0.00 0.00 0.00 54 1012.4
20260506072847 16 0.0 0.0 0.00 0.00 0.00 58 1012.4
20260506071752 15 0.0 0.0 0.00 0.00 0.00 57 1012.3
20260506070656 15 0.0 0.0 0.00 0.00 0.00 58 1012.3
20260506062313 14 0.0 0.0 0.00 0.00 0.00 59 1012.2
20260506061218 14 0.0 0.0 0.00 0.00 0.00 59 1012.1
20260506060122 13 0.0 0.0 0.00 0.00 0.00 60 1012.0
20260506050644 13 0.0 0.0 0.00 0.00 0.00 61 1011.8
20260506044453 14 0.0 0.0 0.00 0.00 0.00 61 1011.7
20260506043357 14 0.0 0.0 0.00 0.00 0.00 60 1011.7
20260506042304 14 0.0 0.0 0.00 0.00 0.00 60 1011.7
20260506041206 14 0.0 0.0 0.00 0.00 0.00 59 1011.7
20260506040104 14 0.0 0.0 0.00 0.00 0.00 59 1011.7
20260506035009 14 0.0 0.0 0.00 0.00 0.00 60 1011.6
20260506033913 14 0.0 0.0 0.00 0.00 0.00 60 1011.5
20260506032817 14 0.0 0.0 0.00 0.00 0.00 60 1011.7
20260506031722 14 0.0 0.0 0.00 0.00 0.00 60 1011.6
20260506030626 14 0.0 0.0 0.00 0.00 0.00 60 1011.4
20260506025530 14 0.0 0.0 0.00 0.00 0.00 61 1011.3
20260506024435 14 0.0 0.0 0.00 0.00 0.00 61 1011.3
20260506023339 14 0.0 0.0 0.00 0.00 0.00 61 1011.2
20260506022244 14 0.0 0.0 0.00 0.00 0.00 61 1011.2
20260506021148 15 0.0 0.0 0.00 0.00 0.00 62 1011.1
20260506020052 15 0.0 0.0 0.00 0.00 0.00 62 1011.0
20260506014957 15 0.0 0.0 0.00 0.00 0.00 61 1011.0
20260506013901 15 0.0 0.0 0.00 0.00 0.00 61 1011.0
20260506012646 15 0.0 0.0 0.00 0.00 0.00 60 1010.9
20260506011551 15 0.0 0.0 0.00 0.00 0.00 61 1010.9
20260506010455 15 0.0 0.0 0.00 0.00 0.00 61 1011.1
20260506005359 15 0.0 0.0 0.00 0.00 0.00 60 1011.1
20260506004304 15 0.0 0.0 0.00 0.00 0.00 60 1011.2
20260506003208 16 0.0 0.0 0.00 0.00 0.00 58 1011.3
20260506002113 16 0.0 0.0 0.00 0.00 0.00 58 1011.5
20260506001017 16 0.0 0.0 0.00 0.00 0.00 57 1011.6
20260505235921 16 0.0 0.0 0.00 0.00 0.00 58 1011.6
20260505234825 16 0.0 0.0 0.00 0.00 0.00 58 1011.7
20260505233729 16 0.0 0.0 0.00 0.00 0.00 58 1011.7
20260505232634 16 0.0 0.0 0.00 0.00 0.00 58 1011.6
20260505231538 16 0.0 0.0 0.00 0.00 0.00 61 1011.5
20260505230443 16 0.0 0.0 0.00 0.00 0.00 62 1011.3
20260505225347 16 0.0 0.0 0.00 0.00 0.00 63 1011.2
20260505224251 16 0.0 0.0 0.00 0.00 0.00 64 1011.2
20260505223156 16 0.0 0.0 0.00 0.00 0.00 64 1011.3
20260505222100 16 0.0 0.0 0.00 0.00 0.00 65 1011.5
20260505221004 17 0.0 0.0 0.00 0.00 0.00 66 1011.6
20260505215909 16 0.0 0.0 0.00 0.00 0.00 67 1011.7
20260505214813 16 0.0 0.0 0.00 0.00 0.00 69 1012.0
20260505213718 16 0.0 0.0 0.00 0.00 0.00 70 1012.3
20260505212622 17 0.0 0.0 0.00 0.00 0.00 70 1012.3
20260505211527 17 0.0 0.0 0.00 0.00 0.00 68 1012.4
20260505210431 17 0.0 0.0 0.00 0.00 0.00 68 1012.2
20260505205335 17 0.0 0.0 0.00 0.00 0.00 67 1012.0
20260505204239 17 0.0 0.0 0.00 0.00 0.00 66 1011.8
20260505203144 18 0.0 0.0 0.00 0.00 0.00 65 1011.6
20260505202048 18 0.0 0.0 0.00 0.00 0.00 65 1011.4
20260505200954 18 0.0 0.0 0.00 0.00 0.00 63 1011.4
20260505195857 18 0.0 0.0 0.00 0.00 0.00 63 1011.2
20260505194758 18 0.0 0.0 0.00 0.00 0.00 63 1010.9
20260505193702 18 0.0 0.0 0.00 0.00 0.00 62 1010.6
20260505192606 18 0.0 0.0 0.00 0.00 0.00 61 1010.4
20260505191511 18 0.0 0.0 0.00 0.00 0.00 61 1010.6
20260505190415 18 0.0 0.0 0.00 0.00 0.00 61 1010.5
20260505185319 18 0.0 0.0 0.00 0.00 0.00 60 1010.6
20260505184224 18 0.0 0.0 0.00 0.00 0.00 61 1010.6
20260505183128 18 0.0 0.0 0.00 0.00 0.00 62 1010.6
20260505182033 18 0.0 0.0 0.00 0.00 0.00 62 1010.6